Back to catalog

KUIPER-00409

AliveCommunicationsLEO
NORAD 68925·PAYLOAD·🇺🇸 United States

Launched Apr 30, 2026 from Guiana Space Centre

Loading…

Next Passes (next 24 hours)

TLE

FreshSource: CelesTrak SupGP

Epoch: Sep 14, 2026, 20:59 UTC

1 68925C 26098G   26257.87471065 -.00050763  00000+0 -66413-2 0  2576
2 68925  51.9033  21.5722 0000693  84.4238 137.0659 14.80005549    17

Track KUIPER-00409 in real time with AllMySat

Download on the App Store